Regional Weather Roundup
Issued by NWS

Home | Current Version | Previous Version | Text Only | Print | Product List | Glossary Off
Versions: 1 2 3 4 5 6 7 8 9 10 11 12 13 14 15 16 17 18 19 20 21 22 23 24 25 26 27 28 29 30 31 32 33 34 35 36 37 38 39 40 41 42 43 44 45 46 47 48 49 50

000
ASUS45 KBOI 060110
RWRID
WEATHER ROUNDUP FOR IDAHO
NATIONAL WEATHER SERVICE BOISE ID
700 PM MDT TUE MAY 05 2015

NOTE: "FAIR" INDICATES FEW OR NO CLOUDS BELOW 12000 FEET
WITH NO SIGNIFICANT WEATHER AND/OR OBSTRUCTIONS TO VISIBILITY

IDZ012-014-060200-
SOUTHWEST IDAHO


CITY           SKY/WX    TMP DP  RH WIND       PRES   REMARKS
BOISE          SUNNY     69  17  13 NW17G26   29.77F
CALDWELL       SUNNY     68  25  19 NW16      29.80S
$$

IDZ016-017-060200-
SOUTHCENTRAL IDAHO


CITY           SKY/WX    TMP DP  RH WIND       PRES   REMARKS
BURLEY         CLOUDY    65  28  24 W17G24    29.75S
JEROME         MOSUNNY   68  19  15 SW23      29.76F
TWIN FALLS     MOSUNNY   68  21  16 W16       29.78S
$$

IDZ019>023-060200-
SOUTHEAST IDAHO


CITY           SKY/WX    TMP DP  RH WIND       PRES   REMARKS
IDAHO FALLS    CLOUDY    55  47  74 N18G25    29.79R
POCATELLO      PTSUNNY   67  41  38 W5        29.75R
REXBURG        RAIN      51  46  83 NW8G24    29.84R
$$

IDZ006-010-011-018-031-032-060200-
CENTRAL IDAHO MOUNTAINS


CITY           SKY/WX    TMP DP  RH WIND       PRES   REMARKS
MCCALL         SUNNY     56  26  31 W9        29.84S
STANLEY          N/A     59  23  25 MISG      29.84
SALMON           N/A     59  45  58 N16G23    29.74R
CHALLIS        MOSUNNY   69  22  16 W12       29.71S
$$

IDZ002-004-006-007-026-060200-
NORTHERN IDAHO


CITY           SKY/WX    TMP DP  RH WIND       PRES   REMARKS
LEWISTON       PTSUNNY   62  27  26 NW13      29.91S
LOWELL           N/A     60  42  51 CALM      29.89R
COEUR D`ALENE  MOSUNNY   55  25  30 N9        29.92S
MULLAN PASS    PTSUNNY   40  22  48 NW5       29.92S
$$



USA.gov is the U.S. government's official web portal to all federal, state and local government web resources and services.